| time (UTC) | temp C | wind direction | speed KPH | gust KPH | rain 1hr cm | rain 24hr cm | rain mn cm | humidity % | barometer mb |
| 20260503195807 | 30 | 53 | 0.0 | 1.6 | 0.00 | 0.00 | 0.00 | 40 | 1008.7 |
| 20260503195304 | 30 | 247 | 0.0 | 0.0 | 0.00 | 0.00 | 0.00 | 37 | 1008.7 |
| 20260503194801 | 30 | 273 | 0.0 | 0.0 | 0.00 | 0.00 | 0.00 | 39 | 1008.8 |
| 20260503194256 | 29 | 259 | 0.0 | 1.6 | 0.00 | 0.00 | 0.00 | 39 | 1008.7 |
| 20260503193753 | 29 | 267 | 4.8 | 4.8 | 0.00 | 0.00 | 0.00 | 37 | 1009.2 |
| 20260503193249 | 30 | 9 | 4.8 | 8.0 | 0.00 | 0.00 | 0.00 | 36 | 1009.0 |
| 20260503192745 | 30 | 233 | 0.0 | 0.0 | 0.00 | 0.00 | 0.00 | 38 | 1008.8 |
| 20260503192240 | 29 | 226 | 0.0 | 0.0 | 0.00 | 0.00 | 0.00 | 40 | 1009.1 |
| 20260503191737 | 29 | 284 | 1.6 | 3.2 | 0.00 | 0.00 | 0.00 | 38 | 1009.1 |
| 20260503191234 | 29 | 224 | 0.0 | 0.0 | 0.00 | 0.00 | 0.00 | 42 | 1009.1 |
| 20260503190731 | 28 | 254 | 0.0 | 1.6 | 0.00 | 0.00 | 0.00 | 42 | 1009.3 |
| 20260503190228 | 28 | 244 | 0.0 | 1.6 | 0.00 | 0.00 | 0.00 | 42 | 1009.1 |
| 20260503185725 | 28 | 245 | 0.0 | 1.6 | 0.00 | 0.00 | 0.00 | 43 | 1009.0 |
| 20260503185220 | 27 | 193 | 1.6 | 3.2 | 0.00 | 0.00 | 0.00 | 44 | 1009.4 |
| 20260503184715 | 27 | 242 | 0.0 | 0.0 | 0.00 | 0.00 | 0.00 | 45 | 1009.2 |
| 20260503184212 | 27 | 293 | 0.0 | 1.6 | 0.00 | 0.00 | 0.00 | 45 | 1009.5 |
| 20260503183708 | 27 | 243 | 0.0 | 0.0 | 0.00 | 0.00 | 0.00 | 44 | 1009.5 |
| 20260503183206 | 27 | 231 | 0.0 | 1.6 | 0.00 | 0.00 | 0.00 | 45 | 1009.5 |
| 20260503182704 | 27 | 249 | 4.8 | 4.8 | 0.00 | 0.00 | 0.00 | 45 | 1009.6 |
| 20260503182202 | 26 | 219 | 0.0 | 0.0 | 0.00 | 0.00 | 0.00 | 45 | 1009.5 |
| 20260503181658 | 26 | 196 | 0.0 | 1.6 | 0.00 | 0.00 | 0.00 | 48 | 1009.7 |
| 20260503181155 | 26 | 351 | 1.6 | 4.8 | 0.00 | 0.00 | 0.00 | 48 | 1009.5 |
| 20260503180652 | 26 | 315 | 1.6 | 8.0 | 0.00 | 0.00 | 0.00 | 45 | 1009.9 |
| 20260503180150 | 26 | 2 | 1.6 | 1.6 | 0.00 | 0.00 | 0.00 | 47 | 1009.7 |
| 20260503175647 | 26 | 224 | 0.0 | 1.6 | 0.00 | 0.00 | 0.00 | 46 | 1009.9 |
| 20260503175144 | 25 | 222 | 0.0 | 0.0 | 0.00 | 0.00 | 0.00 | 51 | 1009.7 |
| 20260503174641 | 26 | 145 | 0.0 | 0.0 | 0.00 | 0.00 | 0.00 | 50 | 1009.8 |
| 20260503174138 | 25 | 311 | 0.0 | 0.0 | 0.00 | 0.00 | 0.00 | 52 | 1010.0 |
| 20260503173633 | 25 | 227 | 0.0 | 1.6 | 0.00 | 0.00 | 0.00 | 47 | 1009.8 |
| 20260503173130 | 25 | 251 | 0.0 | 0.0 | 0.00 | 0.00 | 0.00 | 51 | 1009.7 |
| 20260503172626 | 25 | 252 | 1.6 | 1.6 | 0.00 | 0.00 | 0.00 | 49 | 1009.7 |
| 20260503172124 | 25 | 225 | 0.0 | 0.0 | 0.00 | 0.00 | 0.00 | 51 | 1009.9 |
| 20260503171620 | 25 | 294 | 4.8 | 4.8 | 0.00 | 0.00 | 0.00 | 46 | 1010.0 |
| 20260503171117 | 24 | 166 | 6.4 | 8.0 | 0.00 | 0.00 | 0.00 | 49 | 1009.9 |
| 20260503170615 | 25 | 232 | 1.6 | 3.2 | 0.00 | 0.00 | 0.00 | 49 | 1009.9 |
| 20260503170111 | 24 | 136 | 0.0 | 1.6 | 0.00 | 0.00 | 0.00 | 51 | 1009.8 |
| 20260503151006 | 15 | 225 | 0.0 | 0.0 | 0.00 | 0.00 | 0.00 | 86 | 1010.5 |
| 20260503150503 | 15 | 229 | 0.0 | 0.0 | 0.00 | 0.00 | 0.00 | 87 | 1010.7 |
| 20260503131356 | 10 | 232 | 0.0 | 0.0 | 0.00 | 0.00 | 0.00 | 99 | 1010.1 |
| 20260503130853 | 10 | 244 | 0.0 | 0.0 | 0.00 | 0.00 | 0.00 | 99 | 1010.0 |
| 20260503130350 | 10 | 221 | 0.0 | 0.0 | 0.00 | 0.00 | 0.00 | 99 | 1010.1 |
| 20260503110744 | 10 | 237 | 0.0 | 0.0 | 0.00 | 0.00 | 0.00 | 98 | 1010.4 |
| 20260503110241 | 10 | 242 | 0.0 | 0.0 | 0.00 | 0.00 | 0.00 | 98 | 1010.3 |
| 20260503100207 | 11 | 226 | 0.0 | 0.0 | 0.00 | 0.00 | 0.00 | 97 | 1010.7 |
| 20260503090132 | 11 | 235 | 0.0 | 0.0 | 0.00 | 0.00 | 0.00 | 97 | 1011.1 |
| 20260503081602 | 11 | 237 | 0.0 | 0.0 | 0.00 | 0.00 | 0.00 | 95 | 1011.5 |
| 20260503081059 | 12 | 237 | 0.0 | 0.0 | 0.00 | 0.00 | 0.00 | 95 | 1011.5 |
| 20260503080555 | 12 | 240 | 0.0 | 0.0 | 0.00 | 0.00 | 0.00 | 95 | 1011.3 |
| 20260503072529 | 12 | 226 | 0.0 | 0.0 | 0.00 | 0.00 | 0.00 | 92 | 1011.4 |
| 20260503072026 | 13 | 242 | 0.0 | 1.6 | 0.00 | 0.00 | 0.00 | 92 | 1011.3 |
| 20260503071523 | 13 | 225 | 0.0 | 0.0 | 0.00 | 0.00 | 0.00 | 93 | 1011.4 |
| 20260503071020 | 13 | 219 | 0.0 | 0.0 | 0.00 | 0.00 | 0.00 | 93 | 1011.5 |
| 20260503070516 | 13 | 220 | 0.0 | 0.0 | 0.00 | 0.00 | 0.00 | 93 | 1011.3 |
| 20260503054940 | 15 | 236 | 0.0 | 0.0 | 0.00 | 0.00 | 0.00 | 88 | 1011.4 |
| 20260503054436 | 15 | 242 | 0.0 | 0.0 | 0.00 | 0.00 | 0.00 | 86 | 1011.1 |
| 20260503053934 | 15 | 219 | 0.0 | 0.0 | 0.00 | 0.00 | 0.00 | 85 | 1011.2 |
| 20260503053432 | 16 | 241 | 0.0 | 0.0 | 0.00 | 0.00 | 0.00 | 84 | 1011.5 |
| 20260503052928 | 16 | 235 | 0.0 | 0.0 | 0.00 | 0.00 | 0.00 | 83 | 1011.7 |
| 20260503052425 | 16 | 212 | 0.0 | 0.0 | 0.00 | 0.00 | 0.00 | 83 | 1011.6 |
| 20260503051921 | 16 | 221 | 0.0 | 0.0 | 0.00 | 0.00 | 0.00 | 82 | 1011.4 |
| 20260503051417 | 17 | 195 | 4.8 | 4.8 | 0.00 | 0.00 | 0.00 | 80 | 1011.7 |
| 20260503050915 | 16 | 182 | 4.8 | 4.8 | 0.00 | 0.00 | 0.00 | 81 | 1011.4 |
| 20260503050410 | 16 | 199 | 1.6 | 3.2 | 0.00 | 0.00 | 0.00 | 84 | 1011.3 |
| 20260503045908 | 16 | 221 | 0.0 | 0.0 | 0.00 | 0.00 | 0.00 | 84 | 1011.4 |
| 20260503045406 | 16 | 225 | 0.0 | 0.0 | 0.00 | 0.00 | 0.00 | 83 | 1011.1 |
| 20260503044902 | 16 | 232 | 0.0 | 0.0 | 0.00 | 0.00 | 0.00 | 83 | 1010.7 |
| 20260503044359 | 16 | 233 | 0.0 | 0.0 | 0.00 | 0.00 | 0.00 | 83 | 1011.2 |
| 20260503043856 | 16 | 237 | 0.0 | 0.0 | 0.00 | 0.00 | 0.00 | 83 | 1011.0 |
| 20260503043353 | 16 | 219 | 0.0 | 0.0 | 0.00 | 0.00 | 0.00 | 83 | 1010.8 |
| 20260503042849 | 16 | 220 | 0.0 | 0.0 | 0.00 | 0.00 | 0.00 | 83 | 1011.1 |
| 20260503042346 | 16 | 235 | 0.0 | 0.0 | 0.00 | 0.00 | 0.00 | 83 | 1011.0 |
| 20260503041842 | 16 | 209 | 0.0 | 0.0 | 0.00 | 0.00 | 0.00 | 83 | 1011.3 |
| 20260503041340 | 16 | 220 | 0.0 | 0.0 | 0.00 | 0.00 | 0.00 | 83 | 1010.8 |
| 20260503040837 | 16 | 236 | 0.0 | 0.0 | 0.00 | 0.00 | 0.00 | 82 | 1010.8 |
| 20260503040335 | 16 | 261 | 0.0 | 0.0 | 0.00 | 0.00 | 0.00 | 82 | 1011.0 |
| 20260503035831 | 16 | 239 | 0.0 | 0.0 | 0.00 | 0.00 | 0.00 | 83 | 1010.8 |
| 20260503035328 | 16 | 235 | 0.0 | 0.0 | 0.00 | 0.00 | 0.00 | 83 | 1010.7 |
| 20260503034826 | 16 | 223 | 0.0 | 0.0 | 0.00 | 0.00 | 0.00 | 83 | 1011.0 |
| 20260503034323 | 16 | 234 | 0.0 | 0.0 | 0.00 | 0.00 | 0.00 | 83 | 1010.7 |
| 20260503033820 | 16 | 238 | 0.0 | 0.0 | 0.00 | 0.00 | 0.00 | 82 | 1010.8 |
| 20260503033317 | 16 | 239 | 0.0 | 0.0 | 0.00 | 0.00 | 0.00 | 81 | 1010.7 |
| 20260503032815 | 16 | 242 | 0.0 | 0.0 | 0.00 | 0.00 | 0.00 | 81 | 1010.5 |
| 20260503032314 | 17 | 239 | 0.0 | 0.0 | 0.00 | 0.00 | 0.00 | 79 | 1010.7 |
| 20260503031811 | 17 | 238 | 0.0 | 0.0 | 0.00 | 0.00 | 0.00 | 77 | 1010.6 |
| 20260503031309 | 17 | 227 | 0.0 | 0.0 | 0.00 | 0.00 | 0.00 | 77 | 1010.5 |
| 20260503030805 | 17 | 225 | 0.0 | 0.0 | 0.00 | 0.00 | 0.00 | 76 | 1010.3 |
| 20260503030301 | 17 | 233 | 0.0 | 0.0 | 0.00 | 0.00 | 0.00 | 76 | 1010.3 |
| 20260503025758 | 17 | 232 | 0.0 | 0.0 | 0.00 | 0.00 | 0.00 | 76 | 1010.5 |
| 20260503025256 | 17 | 264 | 0.0 | 0.0 | 0.00 | 0.00 | 0.00 | 76 | 1010.7 |
| 20260503024752 | 17 | 249 | 4.8 | 4.8 | 0.00 | 0.00 | 0.00 | 75 | 1010.7 |
| 20260503024249 | 18 | 238 | 1.6 | 3.2 | 0.00 | 0.00 | 0.00 | 75 | 1010.8 |
| 20260503023746 | 18 | 257 | 3.2 | 4.8 | 0.00 | 0.00 | 0.00 | 73 | 1011.0 |
| 20260503023243 | 18 | 246 | 0.0 | 0.0 | 0.00 | 0.00 | 0.00 | 73 | 1011.1 |
| 20260503022739 | 18 | 236 | 1.6 | 1.6 | 0.00 | 0.00 | 0.00 | 74 | 1011.1 |
| 20260503022234 | 18 | 243 | 0.0 | 1.6 | 0.00 | 0.00 | 0.00 | 73 | 1011.5 |
| 20260503021731 | 18 | 240 | 0.0 | 0.0 | 0.00 | 0.00 | 0.00 | 73 | 1011.5 |
| 20260503021227 | 18 | 228 | 0.0 | 1.6 | 0.00 | 0.00 | 0.00 | 73 | 1011.8 |
| 20260503020725 | 18 | 227 | 0.0 | 0.0 | 0.00 | 0.00 | 0.00 | 73 | 1011.7 |
| 20260503020222 | 18 | 243 | 0.0 | 0.0 | 0.00 | 0.00 | 0.00 | 73 | 1012.0 |
| 20260503015719 | 18 | 117 | 8.0 | 12.9 | 0.00 | 0.00 | 0.00 | 72 | 1011.7 |
| 20260503015216 | 19 | 216 | 3.2 | 3.2 | 0.00 | 0.00 | 0.00 | 71 | 1011.8 |
| 20260503014711 | 20 | 197 | 3.2 | 3.2 | 0.00 | 0.00 | 0.00 | 71 | 1011.3 |
| 20260503014210 | 20 | 226 | 1.6 | 1.6 | 0.00 | 0.00 | 0.00 | 70 | 1011.2 |
| 20260503013706 | 20 | 229 | 0.0 | 0.0 | 0.00 | 0.00 | 0.00 | 70 | 1010.8 |
| 20260503013204 | 20 | 226 | 0.0 | 0.0 | 0.00 | 0.00 | 0.00 | 69 | 1010.7 |
| 20260503012701 | 20 | 227 | 0.0 | 1.6 | 0.00 | 0.00 | 0.00 | 69 | 1011.0 |
| 20260503012158 | 20 | 191 | 1.6 | 3.2 | 0.00 | 0.00 | 0.00 | 69 | 1010.7 |
| 20260503011654 | 20 | 239 | 0.0 | 0.0 | 0.00 | 0.00 | 0.00 | 68 | 1010.5 |
| 20260503011151 | 20 | 203 | 1.6 | 1.6 | 0.00 | 0.00 | 0.00 | 69 | 1011.0 |
| 20260503010648 | 20 | 211 | 0.0 | 0.0 | 0.00 | 0.00 | 0.00 | 69 | 1010.4 |
| 20260503010145 | 20 | 205 | 3.2 | 4.8 | 0.00 | 0.00 | 0.00 | 69 | 1010.7 |
| 20260503005642 | 20 | 228 | 0.0 | 1.6 | 0.00 | 0.00 | 0.00 | 70 | 1010.7 |
| 20260503005139 | 20 | 229 | 1.6 | 3.2 | 0.00 | 0.00 | 0.00 | 70 | 1010.4 |
| 20260503004636 | 20 | 222 | 1.6 | 3.2 | 0.00 | 0.00 | 0.00 | 70 | 1010.4 |
| 20260503004134 | 19 | 202 | 3.2 | 3.2 | 0.00 | 0.00 | 0.00 | 72 | 1010.4 |
| 20260503003631 | 19 | 234 | 1.6 | 1.6 | 0.00 | 0.00 | 0.00 | 71 | 1010.2 |
| 20260503003128 | 19 | 223 | 0.0 | 0.0 | 0.00 | 0.00 | 0.00 | 70 | 1010.3 |
| 20260503002625 | 20 | 198 | 0.0 | 0.0 | 0.00 | 0.00 | 0.00 | 69 | 1010.2 |
| 20260503002122 | 20 | 229 | 0.0 | 0.0 | 0.00 | 0.00 | 0.00 | 68 | 1010.2 |
| 20260503001618 | 20 | 219 | 0.0 | 0.0 | 0.00 | 0.00 | 0.00 | 68 | 1010.2 |
| 20260503001115 | 20 | 227 | 0.0 | 0.0 | 0.00 | 0.00 | 0.00 | 69 | 1010.3 |
| 20260503000612 | 20 | 237 | 0.0 | 0.0 | 0.00 | 0.00 | 0.00 | 69 | 1010.5 |
| 20260503000109 | 20 | 228 | 0.0 | 0.0 | 0.00 | 0.00 | 0.00 | 68 | 1010.5 |
| 20260502235606 | 20 | 233 | 0.0 | 0.0 | 0.00 | 0.00 | 0.00 | 67 | 1010.4 |
| 20260502235104 | 20 | 229 | 0.0 | 0.0 | 0.00 | 0.00 | 0.00 | 67 | 1010.7 |
| 20260502234559 | 20 | 187 | 1.6 | 4.8 | 0.00 | 0.00 | 0.00 | 68 | 1010.4 |
| 20260502234057 | 20 | 236 | 0.0 | 0.0 | 0.00 | 0.00 | 0.00 | 67 | 1010.4 |
| 20260502233552 | 20 | 227 | 0.0 | 1.6 | 0.00 | 0.00 | 0.00 | 66 | 1010.6 |
| 20260502233049 | 20 | 236 | 1.6 | 3.2 | 0.00 | 0.00 | 0.00 | 68 | 1011.1 |
| 20260502232545 | 21 | 220 | 0.0 | 1.6 | 0.00 | 0.00 | 0.00 | 66 | 1011.0 |
| 20260502232043 | 21 | 233 | 0.0 | 0.0 | 0.00 | 0.00 | 0.00 | 64 | 1010.8 |
| 20260502231539 | 20 | 223 | 1.6 | 3.2 | 0.00 | 0.00 | 0.00 | 65 | 1011.0 |
| 20260502231038 | 20 | 215 | 1.6 | 3.2 | 0.00 | 0.00 | 0.00 | 66 | 1011.0 |
| 20260502230536 | 21 | 236 | 1.6 | 1.6 | 0.00 | 0.00 | 0.00 | 63 | 1011.2 |
| 20260502230034 | 21 | 226 | 0.0 | 1.6 | 0.00 | 0.00 | 0.00 | 61 | 1011.2 |
| 20260502225529 | 20 | 247 | 3.2 | 3.2 | 0.00 | 0.00 | 0.00 | 62 | 1011.3 |
| 20260502225026 | 20 | 210 | 0.0 | 0.0 | 0.00 | 0.00 | 0.00 | 65 | 1011.4 |
| 20260502224522 | 20 | 150 | 6.4 | 8.0 | 0.00 | 0.00 | 0.00 | 63 | 1011.4 |
| 20260502224020 | 20 | 234 | 0.0 | 0.0 | 0.00 | 0.00 | 0.00 | 63 | 1011.3 |
| 20260502223517 | 21 | 229 | 0.0 | 0.0 | 0.00 | 0.00 | 0.00 | 60 | 1011.4 |
| 20260502223015 | 20 | 260 | 4.8 | 4.8 | 0.00 | 0.00 | 0.00 | 61 | 1011.6 |
| 20260502222512 | 20 | 301 | 3.2 | 3.2 | 0.00 | 0.00 | 0.00 | 61 | 1011.7 |
| 20260502222009 | 20 | 267 | 4.8 | 4.8 | 0.00 | 0.00 | 0.00 | 62 | 1011.7 |
| 20260502221504 | 20 | 254 | 3.2 | 3.2 | 0.00 | 0.00 | 0.00 | 61 | 1011.8 |
| 20260502221002 | 20 | 246 | 1.6 | 3.2 | 0.00 | 0.00 | 0.00 | 62 | 1011.7 |
| 20260502220457 | 20 | 233 | 4.8 | 4.8 | 0.00 | 0.00 | 0.00 | 62 | 1011.8 |
| 20260502215954 | 20 | 185 | 4.8 | 8.0 | 0.00 | 0.00 | 0.00 | 64 | 1011.9 |
| 20260502215452 | 20 | 234 | 3.2 | 3.2 | 0.00 | 0.00 | 0.00 | 63 | 1012.0 |
| 20260502214948 | 20 | 236 | 4.8 | 4.8 | 0.00 | 0.00 | 0.00 | 62 | 1012.3 |
| 20260502214445 | 20 | 212 | 8.0 | 9.7 | 0.00 | 0.00 | 0.00 | 63 | 1012.0 |
| 20260502213942 | 20 | 207 | 1.6 | 1.6 | 0.00 | 0.00 | 0.00 | 66 | 1012.3 |
| 20260502213439 | 19 | 218 | 4.8 | 8.0 | 0.00 | 0.00 | 0.00 | 66 | 1012.2 |
| 20260502212938 | 18 | 176 | 1.6 | 4.8 | 0.00 | 0.00 | 0.00 | 70 | 1012.5 |
| 20260502212436 | 18 | 209 | 1.6 | 1.6 | 0.00 | 0.00 | 0.00 | 69 | 1012.4 |
| 20260502211933 | 17 | 175 | 4.8 | 4.8 | 0.00 | 0.00 | 0.00 | 69 | 1012.4 |
| 20260502211429 | 18 | 224 | 3.2 | 4.8 | 0.00 | 0.00 | 0.00 | 69 | 1012.3 |
| 20260502210926 | 18 | 180 | 6.4 | 9.7 | 0.00 | 0.00 | 0.00 | 67 | 1012.6 |
| 20260502210423 | 18 | 173 | 8.0 | 9.7 | 0.00 | 0.00 | 0.00 | 67 | 1012.7 |
| 20260502205920 | 20 | 224 | 0.0 | 1.6 | 0.00 | 0.00 | 0.00 | 66 | 1012.7 |
| 20260502205416 | 20 | 233 | 0.0 | 0.0 | 0.00 | 0.00 | 0.00 | 63 | 1012.8 |
| 20260502204914 | 18 | 247 | 1.6 | 3.2 | 0.00 | 0.00 | 0.00 | 66 | 1012.8 |
| 20260502204410 | 18 | 236 | 1.6 | 3.2 | 0.00 | 0.00 | 0.00 | 67 | 1013.1 |
| 20260502203909 | 20 | 266 | 3.2 | 3.2 | 0.00 | 0.00 | 0.00 | 63 | 1013.0 |
| 20260502203406 | 17 | 206 | 0.0 | 0.0 | 0.00 | 0.00 | 0.00 | 67 | 1013.0 |
| 20260502202901 | 18 | 348 | 4.8 | 8.0 | 0.00 | 0.00 | 0.00 | 67 | 1013.2 |
| 20260502202358 | 18 | 240 | 4.8 | 4.8 | 0.00 | 0.00 | 0.00 | 65 | 1013.2 |
| 20260502201856 | 19 | 234 | 1.6 | 3.2 | 0.00 | 0.00 | 0.00 | 64 | 1013.4 |
| 20260502201352 | 18 | 240 | 1.6 | 1.6 | 0.00 | 0.00 | 0.00 | 66 | 1013.4 |
| 20260502200849 | 17 | 244 | 0.0 | 0.0 | 0.00 | 0.00 | 0.00 | 67 | 1013.5 |
| 20260502200344 | 17 | 230 | 1.6 | 3.2 | 0.00 | 0.00 | 0.00 | 69 | 1013.8 |